Simultaneous Nadir Overpasses (SNOs) Predictions

Prediction of SNOs between GOES-16 and METOP-C Satellite Orbit:

Table of predicted SNOs for the next 14.0 days since TLE Epoch: 7/15/2023
Index Date Time (GOES-16) GOES-16 Lat,Lon METOP-C Lat,Lon Distance(km) Time Diff (sec)
1 07/15/2023 14:16:39 0.02, -75.21 -0.80, -71.49 423.71 80
2 07/17/2023 02:35:38 -0.02, -75.20 -0.19, -76.09 100.55 80
3 07/18/2023 02:12:17 -0.01, -75.20 0.91, -71.09 468.63 80
4 07/19/2023 14:33:49 -0.00, -75.21 0.09, -75.65 50.21 80
5 07/22/2023 02:29:28 0.02, -75.22 0.03, -75.26 4.13 80
6 07/24/2023 14:27:38 -0.02, -75.25 -0.13, -74.82 49.57 80
7 07/26/2023 02:49:17 0.01, -75.26 -0.90, -79.41 472.20 80
8 07/27/2023 02:25:56 0.00, -75.28 0.20, -74.41 98.68 80
9 07/28/2023 14:47:28 0.01, -75.30 0.81, -78.98 418.39 80
